Location: Malvern Link
(52.1333°N, 2.3000°W)
Time: 17:12:56
(UTC+00:00)

DIWATA 2B (PO-101) - Pass Details

Date: 27 June 2022
Orbit: 583 x 599 km, 98.0° (Epoch: 19 August)

Event Time Altitude Azimuth Distance (km) Brightness Sun altitude
Exits shadow 01:04:35 - 136° (SE) 2,300 ? -13.7°
Reaches altitude 10° 01:05:31 10° 132° (SE) 1,938 ? -13.6°
Maximum altitude 01:09:22 36° 66° (ENE) 961 ? -13.5°
Drops below altitude 10° 01:13:15 10° 360° (N) 1,955 ? -13.4°
Sets 01:15:33 0° 352° (N) 2,862 ? -13.3°
